Year,Month,Day,Hour,Minute,Value (Times are PST for temperature in C)
2007,06,20,00,00,10.40
2007,06,20,00,01,10.40
2007,06,20,00,02,10.30
2007,06,20,00,03,10.30
2007,06,20,00,04,10.30
2007,06,20,00,05,10.30
2007,06,20,00,06,10.30
2007,06,20,00,07,10.30
2007,06,20,00,08,10.30
2007,06,20,00,09,10.30
2007,06,20,00,10,10.30
2007,06,20,00,11,10.30
2007,06,20,00,12,10.30
2007,06,20,00,13,10.20
2007,06,20,00,14,10.20
2007,06,20,00,15,10.20
2007,06,20,00,16,10.20
2007,06,20,00,17,10.20
2007,06,20,00,18,10.20
2007,06,20,00,19,10.20
2007,06,20,00,20,10.10
2007,06,20,00,21,10.10
2007,06,20,00,22,10.10
2007,06,20,00,23,10.10
2007,06,20,00,24,10.10
2007,06,20,00,25,10.10
2007,06,20,00,26,10.10
2007,06,20,00,27,10.10
2007,06,20,00,28,10.00
2007,06,20,00,29,10.00
2007,06,20,00,30,10.00
2007,06,20,00,31,10.00
2007,06,20,00,32,10.00
2007,06,20,00,33,10.00
2007,06,20,00,34,10.00
2007,06,20,00,35,10.00
2007,06,20,00,36,10.00
2007,06,20,00,37,10.00
2007,06,20,00,38,9.90
2007,06,20,00,39,9.90
2007,06,20,00,40,9.90
2007,06,20,00,41,9.90
2007,06,20,00,42,9.90
2007,06,20,00,43,9.90
2007,06,20,00,44,9.90
2007,06,20,00,45,10.00
2007,06,20,00,46,10.00
2007,06,20,00,47,10.00
2007,06,20,00,48,10.00
2007,06,20,00,49,9.90
2007,06,20,00,50,9.90
2007,06,20,00,51,9.90
2007,06,20,00,52,9.90
2007,06,20,00,53,9.90
2007,06,20,00,54,9.90
2007,06,20,00,55,9.90
2007,06,20,00,56,9.80
2007,06,20,00,57,9.80
2007,06,20,00,58,9.80
2007,06,20,00,59,9.80
2007,06,20,01,00,9.80
2007,06,20,01,01,9.80
2007,06,20,01,02,9.80
2007,06,20,01,03,9.80
2007,06,20,01,04,9.70
2007,06,20,01,05,9.70
2007,06,20,01,06,9.70
2007,06,20,01,07,9.70
2007,06,20,01,08,9.70
2007,06,20,01,09,9.60
2007,06,20,01,10,9.60
2007,06,20,01,11,9.60
2007,06,20,01,12,9.60
2007,06,20,01,13,9.60
2007,06,20,01,14,9.60
2007,06,20,01,15,9.50
2007,06,20,01,16,9.50
2007,06,20,01,17,9.50
2007,06,20,01,18,9.50
2007,06,20,01,19,9.50
2007,06,20,01,20,9.40
2007,06,20,01,21,9.40
2007,06,20,01,22,9.40
2007,06,20,01,23,9.40
2007,06,20,01,24,9.40
2007,06,20,01,25,9.40
2007,06,20,01,26,9.40
2007,06,20,01,27,9.40
2007,06,20,01,28,9.40
2007,06,20,01,29,9.40
2007,06,20,01,30,9.40
2007,06,20,01,31,9.40
2007,06,20,01,32,9.40
2007,06,20,01,33,9.40
2007,06,20,01,34,9.40
2007,06,20,01,35,9.30
2007,06,20,01,36,9.30
2007,06,20,01,37,9.30
2007,06,20,01,38,9.30
2007,06,20,01,39,9.30
2007,06,20,01,40,9.30
2007,06,20,01,41,9.30
2007,06,20,01,42,9.30
2007,06,20,01,43,9.30
2007,06,20,01,44,9.30
2007,06,20,01,45,9.20
2007,06,20,01,46,9.20
2007,06,20,01,47,9.20
2007,06,20,01,48,9.20
2007,06,20,01,49,9.20
2007,06,20,01,50,9.20
2007,06,20,01,51,9.10
2007,06,20,01,52,9.10
2007,06,20,01,53,9.10
2007,06,20,01,54,9.10
2007,06,20,01,55,9.10
2007,06,20,01,56,9.10
2007,06,20,01,57,9.10
2007,06,20,01,58,9.00
2007,06,20,01,59,9.00
2007,06,20,02,00,9.00
2007,06,20,02,01,9.00
2007,06,20,02,02,9.00
2007,06,20,02,03,8.90
2007,06,20,02,04,8.90
2007,06,20,02,05,8.90
2007,06,20,02,06,8.90
2007,06,20,02,07,8.90
2007,06,20,02,08,8.90
2007,06,20,02,09,8.80
2007,06,20,02,10,8.80
2007,06,20,02,11,8.80
2007,06,20,02,12,8.80
2007,06,20,02,13,8.80
2007,06,20,02,14,8.80
2007,06,20,02,15,8.70
2007,06,20,02,16,8.70
2007,06,20,02,17,8.70
2007,06,20,02,18,8.70
2007,06,20,02,19,8.60
2007,06,20,02,20,8.60
2007,06,20,02,21,8.60
2007,06,20,02,22,8.60
2007,06,20,02,23,8.50
2007,06,20,02,24,8.50
2007,06,20,02,25,8.50
2007,06,20,02,26,8.50
2007,06,20,02,27,8.40
2007,06,20,02,28,8.40
2007,06,20,02,29,8.40
2007,06,20,02,30,8.40
2007,06,20,02,31,8.40
2007,06,20,02,32,8.40
2007,06,20,02,33,8.40
2007,06,20,02,34,8.30
2007,06,20,02,35,8.30
2007,06,20,02,36,8.30
2007,06,20,02,37,8.30
2007,06,20,02,38,8.30
2007,06,20,02,39,8.30
2007,06,20,02,40,8.30
2007,06,20,02,41,8.30
2007,06,20,02,42,8.30
2007,06,20,02,43,8.20
2007,06,20,02,44,8.20
2007,06,20,02,45,8.20
2007,06,20,02,46,8.20
2007,06,20,02,47,8.20
2007,06,20,02,48,8.20
2007,06,20,02,49,8.20
2007,06,20,02,50,8.20
2007,06,20,02,51,8.10
2007,06,20,02,52,8.10
2007,06,20,02,53,8.10
2007,06,20,02,54,8.10
2007,06,20,02,55,8.10
2007,06,20,02,56,8.10
2007,06,20,02,57,8.10
2007,06,20,02,58,8.10
2007,06,20,02,59,8.10
2007,06,20,03,00,8.10
2007,06,20,03,01,8.10
2007,06,20,03,02,8.10
2007,06,20,03,03,8.10
2007,06,20,03,04,8.10
2007,06,20,03,05,8.10
2007,06,20,03,06,8.10
2007,06,20,03,07,8.10
2007,06,20,03,08,8.10
2007,06,20,03,09,8.10
2007,06,20,03,10,8.10
2007,06,20,03,11,8.10
2007,06,20,03,12,8.10
2007,06,20,03,13,8.10
2007,06,20,03,14,8.10
2007,06,20,03,15,8.10
2007,06,20,03,16,8.10
2007,06,20,03,17,8.10
2007,06,20,03,18,8.10
2007,06,20,03,19,8.10
2007,06,20,03,20,8.10
2007,06,20,03,21,8.10
2007,06,20,03,22,8.10
2007,06,20,03,23,8.10
2007,06,20,03,24,8.10
2007,06,20,03,25,8.10
2007,06,20,03,26,8.10
2007,06,20,03,27,8.10
2007,06,20,03,28,8.10
2007,06,20,03,29,8.10
2007,06,20,03,30,8.10
2007,06,20,03,31,8.10
2007,06,20,03,32,8.10
2007,06,20,03,33,8.10
2007,06,20,03,34,8.10
2007,06,20,03,35,8.00
2007,06,20,03,36,8.00
2007,06,20,03,37,8.00
2007,06,20,03,38,8.00
2007,06,20,03,39,7.90
2007,06,20,03,40,7.90
2007,06,20,03,41,7.90
2007,06,20,03,42,7.90
2007,06,20,03,43,7.90
2007,06,20,03,44,7.80
2007,06,20,03,45,7.80
2007,06,20,03,46,7.80
2007,06,20,03,47,7.80
2007,06,20,03,48,7.80
2007,06,20,03,49,7.80
2007,06,20,03,50,7.80
2007,06,20,03,51,7.80
2007,06,20,03,52,7.70
2007,06,20,03,53,7.70
2007,06,20,03,54,7.70
2007,06,20,03,55,7.70
2007,06,20,03,56,7.70
2007,06,20,03,57,7.70
2007,06,20,03,58,7.70
2007,06,20,03,59,7.60
2007,06,20,04,00,7.60
2007,06,20,04,01,7.60
2007,06,20,04,02,7.60
2007,06,20,04,03,7.60
2007,06,20,04,04,7.50
2007,06,20,04,05,7.50
2007,06,20,04,06,7.50
2007,06,20,04,07,7.50
2007,06,20,04,08,7.40
2007,06,20,04,09,7.40
2007,06,20,04,10,7.40
2007,06,20,04,11,7.40
2007,06,20,04,12,7.40
2007,06,20,04,13,7.40
2007,06,20,04,14,7.40
2007,06,20,04,15,7.40
2007,06,20,04,16,7.40
2007,06,20,04,17,7.40
2007,06,20,04,18,7.40
2007,06,20,04,19,7.40
2007,06,20,04,20,7.30
2007,06,20,04,21,7.30
2007,06,20,04,22,7.30
2007,06,20,04,23,7.30
2007,06,20,04,24,7.30
2007,06,20,04,25,7.30
2007,06,20,04,26,7.30
2007,06,20,04,27,7.30
2007,06,20,04,28,7.30
2007,06,20,04,29,7.30
2007,06,20,04,30,7.30
2007,06,20,04,31,7.30
2007,06,20,04,32,7.20
2007,06,20,04,33,7.20
2007,06,20,04,34,7.20
2007,06,20,04,35,7.20
2007,06,20,04,36,7.20
2007,06,20,04,37,7.20
2007,06,20,04,38,7.20
2007,06,20,04,39,7.20
2007,06,20,04,40,7.20
2007,06,20,04,41,7.20
2007,06,20,04,42,7.20
2007,06,20,04,43,7.10
2007,06,20,04,44,7.10
2007,06,20,04,45,7.10
2007,06,20,04,46,7.10
2007,06,20,04,47,7.10
2007,06,20,04,48,7.10
2007,06,20,04,49,7.00
2007,06,20,04,50,7.00
2007,06,20,04,51,7.00
2007,06,20,04,52,7.00
2007,06,20,04,53,7.00
2007,06,20,04,54,7.00
2007,06,20,04,55,6.90
2007,06,20,04,56,6.90
2007,06,20,04,57,6.90
2007,06,20,04,58,6.90
2007,06,20,04,59,6.90
2007,06,20,05,00,6.90
2007,06,20,05,01,6.90
2007,06,20,05,02,6.90
2007,06,20,05,03,6.90
2007,06,20,05,04,6.90
2007,06,20,05,05,6.90
2007,06,20,05,06,6.90
2007,06,20,05,07,6.80
2007,06,20,05,08,6.80
2007,06,20,05,09,6.80
2007,06,20,05,10,6.80
2007,06,20,05,11,6.80
2007,06,20,05,12,6.80
2007,06,20,05,13,6.80
2007,06,20,05,14,6.80
2007,06,20,05,15,6.80
2007,06,20,05,16,6.80
2007,06,20,05,17,6.80
2007,06,20,05,18,6.80
2007,06,20,05,19,6.80
2007,06,20,05,20,6.80
2007,06,20,05,21,6.80
2007,06,20,05,22,6.80
2007,06,20,05,23,6.80
2007,06,20,05,24,6.70
2007,06,20,05,25,6.70
2007,06,20,05,26,6.70
2007,06,20,05,27,6.70
2007,06,20,05,28,6.70
2007,06,20,05,29,6.70
2007,06,20,05,30,6.70
2007,06,20,05,31,6.70
2007,06,20,05,32,6.70
2007,06,20,05,33,6.70
2007,06,20,05,34,6.70
2007,06,20,05,35,6.70
2007,06,20,05,36,6.70
2007,06,20,05,37,6.70
2007,06,20,05,38,6.70
2007,06,20,05,39,6.70
2007,06,20,05,40,6.70
2007,06,20,05,41,6.80
2007,06,20,05,42,6.80
2007,06,20,05,43,6.80
2007,06,20,05,44,6.80
2007,06,20,05,45,6.80
2007,06,20,05,46,6.80
2007,06,20,05,47,6.80
2007,06,20,05,48,6.80
2007,06,20,05,49,6.80
2007,06,20,05,50,6.80
2007,06,20,05,51,6.80
2007,06,20,05,52,6.80
2007,06,20,05,53,6.80
2007,06,20,05,54,6.80
2007,06,20,05,55,6.80
2007,06,20,05,56,6.80
2007,06,20,05,57,6.80
2007,06,20,05,58,6.80
2007,06,20,05,59,6.80
2007,06,20,06,00,6.80
2007,06,20,06,01,6.80
2007,06,20,06,02,6.80
2007,06,20,06,03,6.80
2007,06,20,06,04,6.80
2007,06,20,06,05,6.90
2007,06,20,06,06,6.90
2007,06,20,06,07,6.90
2007,06,20,06,08,6.90
2007,06,20,06,09,6.90
2007,06,20,06,10,6.90
2007,06,20,06,11,6.90
2007,06,20,06,12,6.90
2007,06,20,06,13,6.90
2007,06,20,06,14,6.90
2007,06,20,06,15,6.90
2007,06,20,06,16,6.90
2007,06,20,06,17,6.90
2007,06,20,06,18,6.90
2007,06,20,06,19,6.90
2007,06,20,06,20,7.00
2007,06,20,06,21,7.00
2007,06,20,06,22,7.00
2007,06,20,06,23,7.00
2007,06,20,06,24,7.10
2007,06,20,06,25,7.10
2007,06,20,06,26,7.10
2007,06,20,06,27,7.10
2007,06,20,06,28,7.10
2007,06,20,06,29,7.10
2007,06,20,06,30,7.10
2007,06,20,06,31,7.20
2007,06,20,06,32,7.20
2007,06,20,06,33,7.20
2007,06,20,06,34,7.20
2007,06,20,06,35,7.20
2007,06,20,06,36,7.20
2007,06,20,06,37,7.20
2007,06,20,06,38,7.20
2007,06,20,06,39,7.20
2007,06,20,06,40,7.30
2007,06,20,06,41,7.30
2007,06,20,06,42,7.30
2007,06,20,06,43,7.30
2007,06,20,06,44,7.40
2007,06,20,06,45,7.40
2007,06,20,06,46,7.50
2007,06,20,06,47,7.50
2007,06,20,06,48,7.50
2007,06,20,06,49,7.60
2007,06,20,06,50,7.60
2007,06,20,06,51,7.60
2007,06,20,06,52,7.70
2007,06,20,06,53,7.70
2007,06,20,06,54,7.80
2007,06,20,06,55,7.80
2007,06,20,06,56,7.80
2007,06,20,06,57,7.90
2007,06,20,06,58,7.90
2007,06,20,06,59,8.00
2007,06,20,07,00,8.00
2007,06,20,07,01,8.00
2007,06,20,07,02,8.10
2007,06,20,07,03,8.20
2007,06,20,07,04,8.20
2007,06,20,07,05,8.30
2007,06,20,07,06,8.30
2007,06,20,07,07,8.40
2007,06,20,07,08,8.40
2007,06,20,07,09,8.50
2007,06,20,07,10,8.60
2007,06,20,07,11,8.60
2007,06,20,07,12,8.70
2007,06,20,07,13,8.70
2007,06,20,07,14,8.80
2007,06,20,07,15,8.90
2007,06,20,07,16,8.90
2007,06,20,07,17,9.00
2007,06,20,07,18,9.10
2007,06,20,07,19,9.20
2007,06,20,07,20,9.20
2007,06,20,07,21,9.30
2007,06,20,07,22,9.40
2007,06,20,07,23,9.50
2007,06,20,07,24,9.60
2007,06,20,07,25,9.70
2007,06,20,07,26,9.80
2007,06,20,07,27,9.90
2007,06,20,07,28,10.00
2007,06,20,07,29,10.20
2007,06,20,07,30,10.40
2007,06,20,07,31,10.50
2007,06,20,07,32,10.70
2007,06,20,07,33,10.90
2007,06,20,07,34,11.10
2007,06,20,07,35,11.20
2007,06,20,07,36,11.40
2007,06,20,07,37,11.50
2007,06,20,07,38,11.70
2007,06,20,07,39,11.90
2007,06,20,07,40,12.10
2007,06,20,07,41,12.30
2007,06,20,07,42,12.40
2007,06,20,07,43,12.60
2007,06,20,07,44,12.80
2007,06,20,07,45,13.00
2007,06,20,07,46,13.10
2007,06,20,07,47,13.30
2007,06,20,07,48,13.40
2007,06,20,07,49,13.60
2007,06,20,07,50,13.70
2007,06,20,07,51,13.80
2007,06,20,07,52,13.90
2007,06,20,07,53,14.00
2007,06,20,07,54,14.10
2007,06,20,07,55,14.20
2007,06,20,07,56,14.20
2007,06,20,07,57,14.20
2007,06,20,07,58,14.30
2007,06,20,07,59,14.30
2007,06,20,08,00,14.40
2007,06,20,08,01,14.40
2007,06,20,08,02,14.40
2007,06,20,08,03,14.40
2007,06,20,08,04,14.40
2007,06,20,08,05,14.40
2007,06,20,08,06,14.40
2007,06,20,08,07,14.50
2007,06,20,08,08,14.50
2007,06,20,08,09,14.60
2007,06,20,08,10,14.60
2007,06,20,08,11,14.70
2007,06,20,08,12,14.70
2007,06,20,08,13,14.80
2007,06,20,08,14,14.90
2007,06,20,08,15,14.90
2007,06,20,08,16,15.00
2007,06,20,08,17,15.00
2007,06,20,08,18,15.00
2007,06,20,08,19,15.00
2007,06,20,08,20,15.00
2007,06,20,08,21,15.00
2007,06,20,08,22,15.10
2007,06,20,08,23,15.20
2007,06,20,08,24,15.30
2007,06,20,08,25,15.40
2007,06,20,08,26,15.40
2007,06,20,08,27,15.50
2007,06,20,08,28,15.60
2007,06,20,08,29,15.70
2007,06,20,08,30,15.80
2007,06,20,08,31,15.80
2007,06,20,08,32,15.90
2007,06,20,08,33,16.00
2007,06,20,08,34,16.00
2007,06,20,08,35,16.10
2007,06,20,08,36,16.10
2007,06,20,08,37,16.10
2007,06,20,08,38,16.10
2007,06,20,08,39,16.10
2007,06,20,08,40,16.10
2007,06,20,08,41,16.10
2007,06,20,08,42,16.10
2007,06,20,08,43,16.10
2007,06,20,08,44,16.10
2007,06,20,08,45,16.10
2007,06,20,08,46,16.10
2007,06,20,08,47,16.10
2007,06,20,08,48,16.10
2007,06,20,08,49,16.10
2007,06,20,08,50,16.10
2007,06,20,08,51,16.10
2007,06,20,08,52,16.20
2007,06,20,08,53,16.20
2007,06,20,08,54,16.20
2007,06,20,08,55,16.20
2007,06,20,08,56,16.30
2007,06,20,08,57,16.30
2007,06,20,08,58,16.30
2007,06,20,08,59,16.30
2007,06,20,09,00,16.40
2007,06,20,09,01,16.40
2007,06,20,09,02,16.50
2007,06,20,09,03,16.50
2007,06,20,09,04,16.60
2007,06,20,09,05,16.60
2007,06,20,09,06,16.60
2007,06,20,09,07,16.70
2007,06,20,09,08,16.70
2007,06,20,09,09,16.80
2007,06,20,09,10,16.80
2007,06,20,09,11,16.90
2007,06,20,09,12,16.90
2007,06,20,09,13,17.00
2007,06,20,09,14,17.00
2007,06,20,09,15,17.00
2007,06,20,09,16,17.10
2007,06,20,09,17,17.10
2007,06,20,09,18,17.10
2007,06,20,09,19,17.20
2007,06,20,09,20,17.20
2007,06,20,09,21,17.30
2007,06,20,09,22,17.30
2007,06,20,09,23,17.30
2007,06,20,09,24,17.40
2007,06,20,09,25,17.50
2007,06,20,09,26,17.50
2007,06,20,09,27,17.60
2007,06,20,09,28,17.70
2007,06,20,09,29,17.70
2007,06,20,09,30,17.80
2007,06,20,09,31,17.80
2007,06,20,09,32,17.90
2007,06,20,09,33,18.00
2007,06,20,09,34,18.10
2007,06,20,09,35,18.10
2007,06,20,09,36,18.20
2007,06,20,09,37,18.30
2007,06,20,09,38,18.30
2007,06,20,09,39,18.30
2007,06,20,09,40,18.40
2007,06,20,09,41,18.40
2007,06,20,09,42,18.50
2007,06,20,09,43,18.60
2007,06,20,09,44,18.70
2007,06,20,09,45,18.70
2007,06,20,09,46,18.70
2007,06,20,09,47,18.60
2007,06,20,09,48,18.60
2007,06,20,09,49,18.60
2007,06,20,09,50,18.60
2007,06,20,09,51,18.70
2007,06,20,09,52,18.70
2007,06,20,09,53,18.80
2007,06,20,09,54,18.80
2007,06,20,09,55,18.80
2007,06,20,09,56,18.90
2007,06,20,09,57,18.90
2007,06,20,09,58,18.90
2007,06,20,09,59,18.90
2007,06,20,10,00,18.90
2007,06,20,10,01,18.90
2007,06,20,10,02,18.90
2007,06,20,10,03,18.90
2007,06,20,10,04,18.90
2007,06,20,10,05,19.00
2007,06,20,10,06,19.00
2007,06,20,10,07,18.90
2007,06,20,10,08,18.90
2007,06,20,10,09,19.00
2007,06,20,10,10,19.00
2007,06,20,10,11,19.10
2007,06,20,10,12,19.20
2007,06,20,10,13,19.20
2007,06,20,10,14,19.20
2007,06,20,10,15,19.20
2007,06,20,10,16,19.30
2007,06,20,10,17,19.40
2007,06,20,10,18,19.50
2007,06,20,10,19,19.70
2007,06,20,10,20,19.80
2007,06,20,10,21,19.80
2007,06,20,10,22,19.80
2007,06,20,10,23,19.80
2007,06,20,10,24,19.80
2007,06,20,10,25,19.90
2007,06,20,10,26,19.90
2007,06,20,10,27,19.90
2007,06,20,10,28,19.90
2007,06,20,10,29,19.80
2007,06,20,10,30,19.70
2007,06,20,10,31,19.70
2007,06,20,10,32,19.70
2007,06,20,10,33,19.70
2007,06,20,10,34,19.80
2007,06,20,10,35,19.90
2007,06,20,10,36,20.00
2007,06,20,10,37,20.10
2007,06,20,10,38,20.10
2007,06,20,10,39,20.10
2007,06,20,10,40,20.10
2007,06,20,10,41,20.10
2007,06,20,10,42,20.10
2007,06,20,10,43,20.10
2007,06,20,10,44,20.20
2007,06,20,10,45,20.20
2007,06,20,10,46,20.20
2007,06,20,10,47,20.20
2007,06,20,10,48,20.20
2007,06,20,10,49,20.30
2007,06,20,10,50,20.30
2007,06,20,10,51,20.40
2007,06,20,10,52,20.50
2007,06,20,10,53,20.50
2007,06,20,10,54,20.60
2007,06,20,10,55,20.70
2007,06,20,10,56,20.80
2007,06,20,10,57,20.90
2007,06,20,10,58,20.90
2007,06,20,10,59,20.90
2007,06,20,11,00,20.90
2007,06,20,11,01,20.90
2007,06,20,11,02,20.80
2007,06,20,11,03,20.80
2007,06,20,11,04,20.80
2007,06,20,11,05,20.70
2007,06,20,11,06,20.70
2007,06,20,11,07,20.80
2007,06,20,11,08,20.80
2007,06,20,11,09,20.90
2007,06,20,11,10,21.00
2007,06,20,11,11,21.00
2007,06,20,11,12,21.00
2007,06,20,11,13,21.00
2007,06,20,11,14,20.90
2007,06,20,11,15,20.80
2007,06,20,11,16,20.80
2007,06,20,11,17,20.70
2007,06,20,11,18,20.80
2007,06,20,11,19,20.80
2007,06,20,11,20,20.90
2007,06,20,11,21,21.00
2007,06,20,11,22,21.20
2007,06,20,11,23,21.30
2007,06,20,11,24,21.50
2007,06,20,11,25,21.60
2007,06,20,11,26,21.70
2007,06,20,11,27,21.80
2007,06,20,11,28,21.80
2007,06,20,11,29,21.80
2007,06,20,11,30,21.80
2007,06,20,11,31,21.80
2007,06,20,11,32,21.90
2007,06,20,11,33,21.80
2007,06,20,11,34,21.70
2007,06,20,11,35,21.60
2007,06,20,11,36,21.50
2007,06,20,11,37,21.40
2007,06,20,11,38,21.30
2007,06,20,11,39,21.20
2007,06,20,11,40,21.10
2007,06,20,11,41,21.10
2007,06,20,11,42,21.20
2007,06,20,11,43,21.20
2007,06,20,11,44,21.20
2007,06,20,11,45,21.20
2007,06,20,11,46,21.30
2007,06,20,11,47,21.40
2007,06,20,11,48,21.50
2007,06,20,11,49,21.50
2007,06,20,11,50,21.50
2007,06,20,11,51,21.40
2007,06,20,11,52,21.40
2007,06,20,11,53,21.40
2007,06,20,11,54,21.30
2007,06,20,11,55,21.30
2007,06,20,11,56,21.30
2007,06,20,11,57,21.20
2007,06,20,11,58,21.10
2007,06,20,11,59,21.10
2007,06,20,12,00,21.10
2007,06,20,12,01,21.10
2007,06,20,12,02,21.20
2007,06,20,12,03,21.30
2007,06,20,12,04,21.40
2007,06,20,12,05,21.50
2007,06,20,12,06,21.60
2007,06,20,12,07,21.70
2007,06,20,12,08,21.70
2007,06,20,12,09,21.80
2007,06,20,12,10,21.80
2007,06,20,12,11,21.90
2007,06,20,12,12,22.00
2007,06,20,12,13,22.00
2007,06,20,12,14,22.00
2007,06,20,12,15,22.00
2007,06,20,12,16,22.10
2007,06,20,12,17,22.10
2007,06,20,12,18,22.20
2007,06,20,12,19,22.20
2007,06,20,12,20,22.10
2007,06,20,12,21,22.00
2007,06,20,12,22,21.80
2007,06,20,12,23,21.70
2007,06,20,12,24,21.70
2007,06,20,12,25,21.80
2007,06,20,12,26,21.80
2007,06,20,12,27,21.70
2007,06,20,12,28,21.60
2007,06,20,12,29,21.60
2007,06,20,12,30,21.60
2007,06,20,12,31,21.50
2007,06,20,12,32,21.40
2007,06,20,12,33,21.30
2007,06,20,12,34,21.30
2007,06,20,12,35,21.30
2007,06,20,12,36,21.40
2007,06,20,12,37,21.50
2007,06,20,12,38,21.50
2007,06,20,12,39,21.60
2007,06,20,12,40,21.70
2007,06,20,12,41,21.70
2007,06,20,12,42,21.60
2007,06,20,12,43,21.50
2007,06,20,12,44,21.50
2007,06,20,12,45,21.50
2007,06,20,12,46,21.40
2007,06,20,12,47,21.40
2007,06,20,12,48,21.40
2007,06,20,12,49,21.30
2007,06,20,12,50,21.30
2007,06,20,12,51,21.30
2007,06,20,12,52,21.30
2007,06,20,12,53,21.40
2007,06,20,12,54,21.50
2007,06,20,12,55,21.60
2007,06,20,12,56,21.70
2007,06,20,12,57,21.80
2007,06,20,12,58,21.90
2007,06,20,12,59,22.00
2007,06,20,13,00,22.00
2007,06,20,13,01,22.10
2007,06,20,13,02,22.00
2007,06,20,13,03,21.90
2007,06,20,13,04,21.80
2007,06,20,13,05,21.70
2007,06,20,13,06,21.60
2007,06,20,13,07,21.70
2007,06,20,13,08,21.70
2007,06,20,13,09,21.80
2007,06,20,13,10,21.90
2007,06,20,13,11,22.00
2007,06,20,13,12,22.00
2007,06,20,13,13,22.20
2007,06,20,13,14,22.20
2007,06,20,13,15,22.30
2007,06,20,13,16,22.30
2007,06,20,13,17,22.20
2007,06,20,13,18,22.30
2007,06,20,13,19,22.30
2007,06,20,13,20,22.40
2007,06,20,13,21,22.50
2007,06,20,13,22,22.60
2007,06,20,13,23,22.70
2007,06,20,13,24,22.80
2007,06,20,13,25,22.90
2007,06,20,13,26,22.90
2007,06,20,13,27,22.90
2007,06,20,13,28,22.90
2007,06,20,13,29,22.90
2007,06,20,13,30,22.80
2007,06,20,13,31,22.80
2007,06,20,13,32,22.70
2007,06,20,13,33,22.60
2007,06,20,13,34,22.50
2007,06,20,13,35,22.40
2007,06,20,13,36,22.40
2007,06,20,13,37,22.50
2007,06,20,13,38,22.60
2007,06,20,13,39,22.60
2007,06,20,13,40,22.40
2007,06,20,13,41,22.30
2007,06,20,13,42,22.30
2007,06,20,13,43,22.30
2007,06,20,13,44,22.20
2007,06,20,13,45,22.20
2007,06,20,13,46,22.20
2007,06,20,13,47,22.20
2007,06,20,13,48,22.30
2007,06,20,13,49,22.30
2007,06,20,13,50,22.40
2007,06,20,13,51,22.40
2007,06,20,13,52,22.40
2007,06,20,13,53,22.30
2007,06,20,13,54,22.30
2007,06,20,13,55,22.30
2007,06,20,13,56,22.40
2007,06,20,13,57,22.40
2007,06,20,13,58,22.40
2007,06,20,13,59,22.30
2007,06,20,14,00,22.30
2007,06,20,14,01,22.10
2007,06,20,14,02,21.90
2007,06,20,14,03,21.80
2007,06,20,14,04,21.70
2007,06,20,14,05,21.70
2007,06,20,14,06,21.70
2007,06,20,14,07,21.70
2007,06,20,14,08,21.80
2007,06,20,14,09,21.80
2007,06,20,14,10,21.90
2007,06,20,14,11,22.00
2007,06,20,14,12,22.10
2007,06,20,14,13,22.20
2007,06,20,14,14,22.30
2007,06,20,14,15,22.40
2007,06,20,14,16,22.40
2007,06,20,14,17,22.50
2007,06,20,14,18,22.60
2007,06,20,14,19,22.70
2007,06,20,14,20,22.70
2007,06,20,14,21,22.70
2007,06,20,14,22,22.80
2007,06,20,14,23,22.90
2007,06,20,14,24,23.00
2007,06,20,14,25,23.10
2007,06,20,14,26,23.10
2007,06,20,14,27,23.20
2007,06,20,14,28,23.30
2007,06,20,14,29,23.30
2007,06,20,14,30,23.30
2007,06,20,14,31,23.40
2007,06,20,14,32,23.40
2007,06,20,14,33,23.40
2007,06,20,14,34,23.40
2007,06,20,14,35,23.30
2007,06,20,14,36,23.20
2007,06,20,14,37,23.10
2007,06,20,14,38,23.10
2007,06,20,14,39,23.10
2007,06,20,14,40,23.30
2007,06,20,14,41,23.40
2007,06,20,14,42,23.50
2007,06,20,14,43,23.60
2007,06,20,14,44,23.70
2007,06,20,14,45,23.80
2007,06,20,14,46,23.80
2007,06,20,14,47,23.70
2007,06,20,14,48,23.60
2007,06,20,14,49,23.60
2007,06,20,14,50,23.60
2007,06,20,14,51,23.50
2007,06,20,14,52,23.20
2007,06,20,14,53,22.90
2007,06,20,14,54,22.70
2007,06,20,14,55,22.60
2007,06,20,14,56,22.60
2007,06,20,14,57,22.60
2007,06,20,14,58,22.50
2007,06,20,14,59,22.50
2007,06,20,15,00,22.50
2007,06,20,15,01,22.40
2007,06,20,15,02,22.30
2007,06,20,15,03,22.30
2007,06,20,15,04,22.30
2007,06,20,15,05,22.40
2007,06,20,15,06,22.50
2007,06,20,15,07,22.60
2007,06,20,15,08,22.70
2007,06,20,15,09,22.60
2007,06,20,15,10,22.50
2007,06,20,15,11,22.40
2007,06,20,15,12,22.30
2007,06,20,15,13,22.20
2007,06,20,15,14,22.20
2007,06,20,15,15,22.30
2007,06,20,15,16,22.40
2007,06,20,15,17,22.50
2007,06,20,15,18,22.60
2007,06,20,15,19,22.70
2007,06,20,15,20,22.70
2007,06,20,15,21,22.70
2007,06,20,15,22,22.70
2007,06,20,15,23,22.80
2007,06,20,15,24,22.80
2007,06,20,15,25,22.70
2007,06,20,15,26,22.60
2007,06,20,15,27,22.60
2007,06,20,15,28,22.60
2007,06,20,15,29,22.70
2007,06,20,15,30,22.70
2007,06,20,15,31,22.80
2007,06,20,15,32,22.80
2007,06,20,15,33,22.80
2007,06,20,15,34,22.70
2007,06,20,15,35,22.70
2007,06,20,15,36,22.60
2007,06,20,15,37,22.60
2007,06,20,15,38,22.60
2007,06,20,15,39,22.50
2007,06,20,15,40,22.50
2007,06,20,15,41,22.40
2007,06,20,15,42,22.40
2007,06,20,15,43,22.50
2007,06,20,15,44,22.60
2007,06,20,15,45,22.70
2007,06,20,15,46,22.90
2007,06,20,15,47,23.00
2007,06,20,15,48,23.20
2007,06,20,15,49,23.20
2007,06,20,15,50,23.30
2007,06,20,15,51,23.40
2007,06,20,15,52,23.40
2007,06,20,15,53,23.40
2007,06,20,15,54,23.30
2007,06,20,15,55,23.20
2007,06,20,15,56,23.10
2007,06,20,15,57,23.00
2007,06,20,15,58,23.00
2007,06,20,15,59,23.00
2007,06,20,16,00,23.00
2007,06,20,16,01,23.10
2007,06,20,16,02,23.10
2007,06,20,16,03,23.20
2007,06,20,16,04,23.20
2007,06,20,16,05,23.30
2007,06,20,16,06,23.30
2007,06,20,16,07,23.40
2007,06,20,16,08,23.40
2007,06,20,16,09,23.30
2007,06,20,16,10,23.30
2007,06,20,16,11,23.30
2007,06,20,16,12,23.20
2007,06,20,16,13,23.10
2007,06,20,16,14,23.00
2007,06,20,16,15,22.90
2007,06,20,16,16,22.90
2007,06,20,16,17,22.90
2007,06,20,16,18,22.90
2007,06,20,16,19,22.80
2007,06,20,16,20,22.70
2007,06,20,16,21,22.70
2007,06,20,16,22,22.70
2007,06,20,16,23,22.60
2007,06,20,16,24,22.60
2007,06,20,16,25,22.60
2007,06,20,16,26,22.60
2007,06,20,16,27,22.60
2007,06,20,16,28,22.60
2007,06,20,16,29,22.50
2007,06,20,16,30,22.60
2007,06,20,16,31,22.60
2007,06,20,16,32,22.60
2007,06,20,16,33,22.70
2007,06,20,16,34,22.80
2007,06,20,16,35,22.80
2007,06,20,16,36,22.90
2007,06,20,16,37,22.90
2007,06,20,16,38,22.90
2007,06,20,16,39,22.90
2007,06,20,16,40,23.00
2007,06,20,16,41,23.00
2007,06,20,16,42,23.00
2007,06,20,16,43,23.10
2007,06,20,16,44,23.10
2007,06,20,16,45,23.10
2007,06,20,16,46,23.10
2007,06,20,16,47,23.10
2007,06,20,16,48,23.00
2007,06,20,16,49,23.10
2007,06,20,16,50,23.10
2007,06,20,16,51,23.10
2007,06,20,16,52,23.00
2007,06,20,16,53,22.90
2007,06,20,16,54,22.80
2007,06,20,16,55,22.80
2007,06,20,16,56,22.70
2007,06,20,16,57,22.70
2007,06,20,16,58,22.60
2007,06,20,16,59,22.60
2007,06,20,17,00,22.60
2007,06,20,17,01,22.60
2007,06,20,17,02,22.70
2007,06,20,17,03,22.70
2007,06,20,17,04,22.80
2007,06,20,17,05,22.80
2007,06,20,17,06,22.80
2007,06,20,17,07,22.80
2007,06,20,17,08,22.70
2007,06,20,17,09,22.60
2007,06,20,17,10,22.60
2007,06,20,17,11,22.60
2007,06,20,17,12,22.60
2007,06,20,17,13,22.60
2007,06,20,17,14,22.60
2007,06,20,17,15,22.60
2007,06,20,17,16,22.50
2007,06,20,17,17,22.50
2007,06,20,17,18,22.50
2007,06,20,17,19,22.40
2007,06,20,17,20,22.30
2007,06,20,17,21,22.30
2007,06,20,17,22,22.20
2007,06,20,17,23,22.20
2007,06,20,17,24,22.20
2007,06,20,17,25,22.20
2007,06,20,17,26,22.20
2007,06,20,17,27,22.20
2007,06,20,17,28,22.20
2007,06,20,17,29,22.20
2007,06,20,17,30,22.30
2007,06,20,17,31,22.40
2007,06,20,17,32,22.50
2007,06,20,17,33,22.60
2007,06,20,17,34,22.60
2007,06,20,17,35,22.70
2007,06,20,17,36,22.70
2007,06,20,17,37,22.70